[[{"header":{"parameterUnit":"m.s-1","parameterCategory":2,"la1":30.2991,"la2":30.254,"lo1":-89.0895,"lo2":-89.0444,"dy":0.0017,"dx":0.0017,"nx":28,"ny":28,"refTime":"2024-06-27T21:00:00:Z","depth":"0","parameterNumber":2,"parameterNumberName":"U-component_of_CURRENTS"},"data":[0,0,0,0,0,0,0,0,0,0,0,0,0,0,0,0,0,0,0,0,0,0,0,0,0,0,0,0,0,0,0,0,0,0,0,0,0,0,0,0,0,0,0,0,0,0,0,0,0,0,0,0,0,0,0,0,0,0,0.1742,0.1742,0,0.1706,0.1705,0.1705,0.1686,0.1686,0.1685,0.1685,0.1767,0.1769,0.1772,0,0,0,0,0,0,0,0,0,0,0,0,0,0.1713,0.1715,0.1742,0.1742,0.1741,0.1706,0.1705,0.1705,0.1686,0.1686,0.1685,0.1685,0.1766,0.1769,0.1772,0,0,0,0,0,0,0,0,0,0,0,0,0,0.1708,0.1715,0.1742,0.1726,0.1725,0.1706,0.1705,0.1705,0.1686,0.1686,0.1685,0.1685,0.1766,0.1769,0.1772,0.1798,0,0,0.1783,0.1784,0,0,0,0,0,0,0,0,0.1708,0.1709,0.1729,0.1727,0.1725,0.1699,0.1725,0.1741,0.1686,0.1702,0.1685,0.1685,0.1755,0.1759,0.1753,0.1801,0.1805,0.1783,0.1785,0.1787,0.1788,0,0,0,0,0,0,0,0.1709,0.171,0.1729,0.1729,0.1726,0.1693,0.1693,0.1727,0.1733,0.17,0.1698,0.1693,0.1755,0.1749,0.1755,0.1806,0.1783,0.1786,0.1788,0.179,0.1919,0.1921,0,0,0,0,0,0,0.1716,0.1711,0.173,0.1728,0.1715,0.1694,0.1694,0.1709,0.173,0.1732,0.1693,0.1692,0.1743,0.1751,0.1758,0.1844,0.1787,0.179,0.1792,0.1918,0.192,0.1921,0,0,0,0,0,0,0.1716,0.1719,0.1731,0.1716,0.1715,0.1695,0.1711,0.1708,0.1703,0.1723,0.1727,0.1691,0.1743,0.1753,0.1797,0.1846,0.1792,0.1795,0.1916,0.1918,0.192,0.1983,0,0,0,0,0,0,0.1715,0.1719,0.1742,0.1717,0.1716,0.1741,0.1711,0.1707,0.1699,0.1697,0.1723,0.173,0.1744,0.1791,0.18,0.1849,0.1797,0.1915,0.1917,0.192,0.198,0.1987,0.1994,0,0,0,0,0,0.1715,0.1758,0.1744,0.1746,0.1746,0.1742,0.1739,0.1723,0.1699,0.1714,0.1722,0.1729,0.1814,0.1795,0.1805,0.1857,0.1913,0.1916,0.1919,0.1976,0.1986,0.1994,0,0,0,0,0,0,0.1768,0.1759,0.1743,0.1784,0.1767,0.1739,0.1753,0.1725,0.1737,0.1737,0.1745,0.1754,0.181,0.182,0.1798,0.1899,0.1866,0.1871,0.1906,0.1915,0.1922,0.1942,0.18,0,0,0,0,0,0.1786,0.1806,0.1787,0.1813,0.1813,0.1776,0.1773,0.1754,0.1753,0.1755,0.1773,0.1796,0.183,0.1859,0.1887,0.1946,0.1961,0.1985,0.1992,0.1998,0.202,0.205,0.2062,0.1931,0.1931,0.1931,0,0,0.1806,0.1806,0.1816,0.1823,0.1809,0.1826,0.1776,0.1775,0.179,0.1768,0.1813,0.182,0.1846,0.1909,0.1937,0.1927,0.2049,0.2002,0.2007,0.2026,0.2054,0.2067,0.2078,0.1933,0.1933,0.1933,0,0,0.1851,0.1864,0.189,0.1889,0.1874,0.1863,0.1863,0.1842,0.1842,0.1872,0.1861,0.1895,0.1947,0.1978,0.1998,0.2063,0.2077,0.2073,0.2143,0.2171,0.2183,0.2193,0.2255,0.227,0.2088,0.2088,0.2088,0,0.188,0.1902,0.1895,0.192,0.1919,0.1884,0.1901,0.191,0.1905,0.1914,0.1903,0.1966,0.1986,0.2058,0.2086,0.2084,0.2108,0.2108,0.2182,0.2192,0.2201,0.2262,0.2277,0.2092,0.2091,0.2091,0.2091,0,0.193,0.1952,0.197,0.199,0.2001,0.2007,0.201,0.2028,0.2018,0.2015,0.2066,0.2085,0.2121,0.2139,0.2142,0.2222,0.2223,0.2177,0.216,0.2218,0.2279,0.2294,0.2096,0.2095,0.2094,0.2093,0,0,0.1972,0.1997,0.2,0.2002,0.2027,0.203,0.2085,0.2105,0.2124,0.2151,0.2182,0.2249,0.2239,0.2262,0.2263,0.2306,0.24,0.2284,0.2284,0.2349,0.2497,0.2571,0.2594,0.2362,0.2364,0.2366,0.2523,0,0.1999,0.2038,0.2052,0.2085,0.21,0.2105,0.215,0.2173,0.2192,0.2228,0.2257,0.229,0.2292,0.2302,0.2353,0.2378,0.2439,0.2364,0.243,0.2433,0.2492,0.2613,0.2631,0.2778,0.2538,0.254,0.2542,0,0.2033,0.2048,0.2082,0.21,0.2108,0.2135,0.2174,0.2207,0.2268,0.2282,0.2336,0.2347,0.2439,0.2399,0.2524,0.2475,0.2507,0.2527,0.2532,0.2591,0.2535,0.2676,0.2815,0.2717,0.2565,0.2563,0.2562,0,0.2028,0.2063,0.2079,0.2089,0.2126,0.2142,0.2162,0.2219,0.2244,0.2313,0.2345,0.243,0.2476,0.2534,0.2616,0.2565,0.2745,0.2661,0.2768,0.2773,0.28,0.2805,0.2855,0.2747,0.2747,0.2747,0.2746,0,0.2045,0.2057,0.2071,0.2081,0.2098,0.2127,0.2158,0.2195,0.2252,0.2297,0.2365,0.2433,0.2508,0.2618,0.2662,0.2811,0.2789,0.2832,0.2833,0.2826,0.2831,0.2753,0.27,0.2752,0.2751,0.275,0.2749,0,0.2045,0.2058,0.2072,0.2092,0.2098,0.2109,0.2142,0.2167,0.2231,0.2298,0.2323,0.246,0.2622,0.2726,0.2844,0.2887,0.2963,0.3031,0.305,0.3052,0.304,0.299,0.3013,0.2999,0.3177,0.318,0.3183,0,0.2053,0.2058,0.2065,0.2066,0.2073,0.2088,0.2102,0.215,0.2183,0.2321,0.236,0.2541,0.2681,0.294,0.307,0.3224,0.309,0.3289,0.319,0.3101,0.3044,0.2901,0.2875,0.3257,0.326,0.3263,0.3264,0,0.2054,0.2048,0.2042,0.2044,0.2049,0.2065,0.2088,0.2106,0.218,0.2267,0.2408,0.2534,0.2834,0.3028,0.3256,0.3346,0.3208,0.3343,0.3231,0.3132,0.2999,0.2965,0.3101,0.3286,0.3284,0.3282,0.3281,0.328,0.2035,0.2019,0.2001,0.2003,0.2011,0.2026,0.2025,0.2072,0.2137,0.2237,0.2391,0.2549,0.2856,0.3209,0.3337,0.3483,0.3378,0.34,0.336,0.323,0.3184,0.3404,0.3589,0.3589,0.3588,0.3588,0.3588,0,0.1987,0.197,0.1966,0.1954,0.195,0.198,0.2002,0.1999,0.2059,0.2181,0.2312,0.256,0.2867,0.3123,0.3417,0.3442,0.3376,0.3393,0.3162,0.3147,0.3342,0.331,0.3465,0.3466,0.3466,0.3466,0.3466,0.3466,0.1949,0.192,0.1914,0.1891,0.1893,0.1869,0.1874,0.1896,0.1951,0.2045,0.2139,0.227,0.2584,0.3021,0.3241,0.3292,0.3139,0.3124,0.3056,0.3141,0.3134,0.3128,0.3082,0.3187,0.3187,0.2807,0.2804,0.2802]},{"header":{"parameterUnit":"m.s-1","parameterCategory":2,"la1":30.2991,"la2":30.254,"lo1":-89.0895,"lo2":-89.0444,"dy":0.0017,"dx":0.0017,"nx":28,"ny":28,"refTime":"2024-06-27T21:00:00:Z","depth":"0","parameterNumber":3,"parameterNumberName":"V-component_of_CURRENTS"},"data":[0,0,0,0,0,0,0,0,0,0,0,0,0,0,0,0,0,0,0,0,0,0,0,0,0,0,0,0,0,0,0,0,0,0,0,0,0,0,0,0,0,0,0,0,0,0,0,0,0,0,0,0,0,0,0,0,0,0,-0.0118,-0.0118,0,-0.0141,-0.0142,-0.0142,-0.0163,-0.0163,-0.0164,-0.0164,-0.0244,-0.0245,-0.0247,0,0,0,0,0,0,0,0,0,0,0,0,0,-0.0142,-0.0141,-0.0118,-0.0118,-0.0118,-0.0141,-0.0142,-0.0142,-0.0163,-0.0163,-0.0164,-0.0164,-0.0243,-0.0245,-0.0247,0,0,0,0,0,0,0,0,0,0,0,0,0,-0.0144,-0.0141,-0.0118,-0.0132,-0.0134,-0.0141,-0.0142,-0.0142,-0.0163,-0.0163,-0.0164,-0.0164,-0.0242,-0.0245,-0.0248,-0.0255,0,0,-0.0256,-0.0257,0,0,0,0,0,0,0,0,-0.0144,-0.0143,-0.013,-0.0131,-0.0133,-0.0151,-0.018,-0.0183,-0.0163,-0.0151,-0.0164,-0.0164,-0.0218,-0.0223,-0.0224,-0.0258,-0.0262,-0.0256,-0.0258,-0.0259,-0.026,0,0,0,0,0,0,0,-0.0144,-0.0143,-0.0126,-0.013,-0.0132,-0.0156,-0.0156,-0.018,-0.0182,-0.0152,-0.0154,-0.0158,-0.0219,-0.0221,-0.0226,-0.0263,-0.0256,-0.0259,-0.026,-0.0261,-0.0277,-0.0276,0,0,0,0,0,0,-0.0139,-0.0142,-0.0125,-0.0127,-0.0141,-0.0155,-0.0155,-0.0144,-0.018,-0.0186,-0.0157,-0.0159,-0.0216,-0.0223,-0.0229,-0.0208,-0.0259,-0.0262,-0.0263,-0.0278,-0.0276,-0.0275,0,0,0,0,0,0,-0.014,-0.0137,-0.0124,-0.0137,-0.0137,-0.0153,-0.0141,-0.0144,-0.0148,-0.0184,-0.0191,-0.0158,-0.0217,-0.0225,-0.0235,-0.0213,-0.0263,-0.0265,-0.0279,-0.0277,-0.0276,-0.0186,0,0,0,0,0,0,-0.014,-0.0136,-0.0132,-0.0136,-0.0136,-0.0119,-0.0141,-0.0144,-0.015,-0.0152,-0.0187,-0.0195,-0.0218,-0.023,-0.0238,-0.0217,-0.0267,-0.0281,-0.0278,-0.0276,-0.0191,-0.0182,-0.0174,0,0,0,0,0,-0.014,-0.0128,-0.0131,-0.0129,-0.0127,-0.0118,-0.012,-0.0134,-0.0149,-0.0141,-0.016,-0.0194,-0.0221,-0.0231,-0.024,-0.022,-0.0282,-0.0279,-0.0276,-0.0195,-0.0184,-0.0174,0,0,0,0,0,0,-0.0126,-0.0129,-0.0132,-0.0118,-0.0115,-0.0122,-0.0125,-0.0132,-0.014,-0.0148,-0.0181,-0.0189,-0.0188,-0.0217,-0.0228,-0.0217,-0.0256,-0.0255,-0.0191,-0.0181,-0.0173,-0.0163,-0.027,0,0,0,0,0,-0.0122,-0.0113,-0.0117,-0.01,-0.0106,-0.0116,-0.0118,-0.0121,-0.0129,-0.0134,-0.0149,-0.017,-0.0182,-0.0192,-0.0207,-0.0206,-0.0239,-0.0198,-0.019,-0.0182,-0.0179,-0.0214,-0.0209,-0.0266,-0.0266,-0.0266,0,0,-0.0107,-0.0109,-0.0102,-0.0097,-0.0104,-0.0093,-0.0118,-0.0114,-0.0096,-0.0143,-0.0124,-0.0143,-0.0175,-0.0165,-0.0167,-0.0188,-0.0177,-0.0179,-0.0172,-0.0174,-0.0211,-0.0205,-0.0201,-0.0264,-0.0264,-0.0265,0,0,-0.0077,-0.0081,-0.0072,-0.0071,-0.0077,-0.0077,-0.0074,-0.0074,-0.0071,-0.0054,-0.008,-0.0082,-0.0099,-0.0108,-0.0121,-0.0078,-0.0131,-0.0084,-0.0035,-0.0068,-0.0064,-0.0061,-0.0071,-0.007,-0.008,-0.008,-0.008,0,-0.0074,-0.0047,-0.0065,-0.0058,-0.0051,-0.0067,-0.0047,-0.0044,-0.0036,-0.0026,-0.0038,-0.0044,-0.007,-0.0063,-0.0041,-0.0059,-0.0083,-0.007,-0.0057,-0.0055,-0.0054,-0.0066,-0.0065,-0.0075,-0.0076,-0.0076,-0.0077,0,-0.0036,-0.002,-0.0015,-0.0007,0.0002,0.0017,0.0018,0.0035,0.0038,0.0045,0.0061,0.0038,0.0033,0.0031,0.0008,0.0015,-0.0005,-0.0042,-0.0084,-0.0042,-0.0057,-0.0058,-0.0069,-0.007,-0.0072,-0.0073,0,0,-0.0022,0.0002,0.0003,0.0021,0.0029,0.0044,0.0075,0.01,0.0123,0.013,0.016,0.015,0.0135,0.012,0.0093,0.0072,0.0074,0.0027,0.0023,0.0018,0.0016,0.0007,0.0004,0.0033,0.0033,0.0033,0.001,0,0.0007,0.0034,0.0047,0.0094,0.011,0.0115,0.0151,0.0173,0.0188,0.0214,0.0191,0.02,0.0168,0.0166,0.0144,0.0095,0.0071,0.0085,-0.0024,-0.0026,-0.004,0.0003,0.003,0.0011,0.0008,0.0008,0.0008,0,0.0037,0.0055,0.0093,0.0148,0.0154,0.0185,0.0234,0.0264,0.0287,0.0295,0.0299,0.0278,0.027,0.0219,0.0161,0.017,0.0101,0.0054,0.0051,0.0006,-0.0038,-0.0036,0.0008,-0.0061,0.0005,0.0005,0.0005,0,0.005,0.0095,0.0129,0.0141,0.019,0.022,0.0252,0.0289,0.0322,0.0338,0.0364,0.034,0.0336,0.0256,0.018,0.0162,0.0103,0.0059,-0.0015,-0.0016,-0.0032,-0.0034,-0.007,-0.001,-0.001,-0.001,-0.001,0,0.0073,0.0103,0.0137,0.0151,0.0212,0.024,0.0303,0.0329,0.0373,0.0427,0.04,0.0436,0.0339,0.0302,0.0207,0.0116,0.0121,0.0005,-0.0023,0.0003,0.0004,-0.009,-0.0143,-0.0011,-0.0011,-0.001,-0.001,0,0.0076,0.0095,0.014,0.0192,0.0217,0.0255,0.0335,0.0381,0.0416,0.0485,0.0491,0.0505,0.0469,0.0373,0.0255,0.0161,0.001,0.0008,0.0063,0.0041,-0.0095,-0.0144,-0.0272,-0.0302,-0.0068,-0.0068,-0.0068,0,0.0072,0.0093,0.0156,0.0189,0.0214,0.0276,0.033,0.0389,0.0446,0.0539,0.058,0.0573,0.0606,0.0456,0.0273,0.0115,0.0006,0.0006,-0.0033,-0.0085,-0.0161,-0.0234,-0.0254,-0.0008,-0.0008,-0.0008,-0.0008,0,0.0068,0.0089,0.0125,0.0195,0.0254,0.033,0.0412,0.047,0.0557,0.0645,0.0758,0.0797,0.0664,0.0565,0.0331,0.0181,-0.0041,0.0003,-0.0072,-0.0128,-0.0191,-0.0238,0.0003,-0.0006,-0.0006,-0.0006,-0.0006,-0.0006,0.0061,0.009,0.0142,0.0215,0.0287,0.0393,0.0483,0.0597,0.0732,0.0934,0.0922,0.1069,0.0864,0.0571,0.0334,-0.0027,-0.0053,-0.0108,-0.0162,-0.0232,-0.0262,-0.0005,-0.0041,-0.0042,-0.0042,-0.0042,-0.0042,0,0.0062,0.0107,0.0165,0.0265,0.0355,0.0397,0.0552,0.0693,0.09,0.1097,0.1249,0.1276,0.1009,0.0666,0.0168,-0.0106,-0.0249,-0.0244,-0.0328,-0.0342,-0.012,-0.0116,-0.0144,-0.0144,-0.0144,-0.0144,-0.0144,-0.0144,0.0068,0.0124,0.0165,0.0308,0.0389,0.0558,0.0669,0.0915,0.1111,0.1437,0.1593,0.1653,0.1408,0.0556,-0.0052,-0.0228,-0.0425,-0.049,-0.0564,-0.0391,-0.0381,-0.0373,-0.0381,-0.0463,-0.0464,-0.0754,-0.0756,-0.0758]}],[{"header":{"parameterUnit":"m.s-1","parameterCategory":2,"la1":30.2991,"la2":30.254,"lo1":-89.0895,"lo2":-89.0444,"dy":0.0017,"dx":0.0017,"nx":28,"ny":28,"refTime":"2024-06-27T21:00:00:Z","depth":"2","parameterNumber":2,"parameterNumberName":"U-component_of_CURRENTS"},"data":[0,0,0,0,0,0,0,0,0,0,0,0,0,0,0,0,0,0,0,0,0,0,0,0,0,0,0,0,0,0,0,0,0,0,0,0,0,0,0,0,0,0,0,0,0,0,0,0,0,0,0,0,0,0,0,0,0,0,-0.045,-0.045,0,-0.0495,-0.0495,-0.0496,-0.0493,-0.0492,-0.0491,-0.049,-0.0437,-0.0437,-0.0436,0,0,0,0,0,0,0,0,0,0,0,0,0,-0.066,-0.0655,-0.045,-0.045,-0.045,-0.0494,-0.0495,-0.0497,-0.0493,-0.0492,-0.0491,-0.0489,-0.0437,-0.0437,-0.0436,0,0,0,0,0,0,0,0,0,0,0,0,0,-0.0627,-0.0653,-0.045,-0.045,-0.045,-0.0494,-0.0495,-0.0497,-0.0494,-0.0492,-0.049,-0.0489,-0.0437,-0.0437,-0.0436,-0.0466,0,0,-0.0435,-0.0434,0,0,0,0,0,0,0,0,-0.0629,-0.062,-0.045,-0.045,-0.045,-0.0482,-0.055,-0.048,-0.0494,-0.0482,-0.049,-0.0488,-0.0441,-0.044,-0.0461,-0.0464,-0.0461,-0.0435,-0.0434,-0.0434,-0.0434,0,0,0,0,0,0,0,-0.063,-0.062,-0.0472,-0.045,-0.045,-0.055,-0.0542,-0.0539,-0.0472,-0.0483,-0.0482,-0.048,-0.0441,-0.0461,-0.0459,-0.0461,-0.0435,-0.0434,-0.0434,-0.0433,-0.0373,-0.0371,0,0,0,0,0,0,-0.06,-0.0619,-0.0471,-0.0473,-0.0532,-0.0546,-0.0537,-0.0478,-0.0475,-0.0472,-0.0481,-0.0479,-0.0463,-0.046,-0.0457,-0.0316,-0.0434,-0.0433,-0.0433,-0.0374,-0.0372,-0.0371,0,0,0,0,0,0,-0.0604,-0.0584,-0.0469,-0.0548,-0.054,-0.0541,-0.0477,-0.0479,-0.0446,-0.0473,-0.0469,-0.0439,-0.0462,-0.0458,-0.0424,-0.032,-0.0433,-0.0433,-0.0375,-0.0373,-0.0372,-0.0147,0,0,0,0,0,0,-0.0608,-0.0584,-0.0523,-0.0543,-0.0533,-0.0462,-0.0478,-0.0481,-0.0448,-0.0445,-0.0436,-0.0433,-0.046,-0.0425,-0.0424,-0.0322,-0.0432,-0.0377,-0.0375,-0.0372,-0.0156,-0.0137,-0.0122,0,0,0,0,0,-0.0615,-0.0575,-0.0518,-0.0501,-0.0449,-0.046,-0.0465,-0.0469,-0.0447,-0.0432,-0.0428,-0.0431,-0.0409,-0.0424,-0.0423,-0.0317,-0.0378,-0.0375,-0.0372,-0.0163,-0.0141,-0.0122,0,0,0,0,0,0,-0.0636,-0.057,-0.051,-0.0442,-0.042,-0.0457,-0.0453,-0.0435,-0.0424,-0.0396,-0.0421,-0.0419,-0.0341,-0.0387,-0.0404,-0.0303,-0.0391,-0.0388,-0.0232,-0.0212,-0.0195,-0.0228,-0.0432,0,0,0,0,0,-0.0602,-0.0551,-0.0499,-0.0444,-0.0421,-0.0413,-0.041,-0.039,-0.0391,-0.0381,-0.0372,-0.0364,-0.0342,-0.0321,-0.0322,-0.0273,-0.028,-0.0211,-0.0193,-0.0178,-0.0209,-0.011,-0.0084,-0.0362,-0.0362,-0.0362,0,0,-0.0595,-0.0554,-0.052,-0.0445,-0.043,-0.0401,-0.0408,-0.0375,-0.0331,-0.0376,-0.0311,-0.0294,-0.0319,-0.0255,-0.0224,-0.0268,-0.0096,-0.0174,-0.016,-0.0202,-0.0104,-0.0076,-0.0052,-0.036,-0.036,-0.036,0,0,-0.0601,-0.0506,-0.0467,-0.044,-0.038,-0.0372,-0.0339,-0.0309,-0.0266,-0.0215,-0.0211,-0.015,-0.0141,-0.012,-0.0116,-0.0017,-0.0004,0.0008,0.0079,0.018,0.0205,0.0226,0.0297,0.0323,0.0015,0.0016,0.0016,0,-0.0586,-0.0503,-0.0467,-0.0431,-0.0398,-0.0344,-0.0295,-0.0261,-0.0218,-0.0161,-0.0168,-0.0106,-0.0085,-0.0011,0.0038,0.0032,0.0075,0.0023,0.021,0.023,0.0249,0.0315,0.0341,0.0027,0.0026,0.0025,0.0024,0,-0.0561,-0.0486,-0.0474,-0.0384,-0.0355,-0.0305,-0.0237,-0.0167,-0.0099,-0.0053,0.0056,0.0058,0.0107,0.014,0.0126,0.0275,0.0263,0.0237,0.0176,0.0292,0.0353,0.0376,0.0043,0.0039,0.0036,0.0033,0,0,-0.0525,-0.046,-0.0441,-0.0389,-0.0304,-0.028,-0.0184,-0.0076,0.0004,0.0075,0.0161,0.024,0.0291,0.0292,0.0313,0.0375,0.0593,0.0378,0.0379,0.0478,0.0823,0.0733,0.0749,0.0636,0.064,0.0643,0.0832,0,-0.0488,-0.0427,-0.0393,-0.0312,-0.0263,-0.0186,-0.0119,-0.0011,0.0077,0.0171,0.0242,0.0327,0.034,0.0398,0.0485,0.0524,0.0655,0.0541,0.0663,0.0665,0.0598,0.0772,0.0613,0.0759,0.0853,0.0857,0.086,0,-0.0436,-0.0404,-0.0328,-0.0248,-0.0213,-0.0159,-0.0015,0.0061,0.0205,0.0279,0.0389,0.0442,0.056,0.0549,0.0726,0.0665,0.0796,0.0815,0.0824,0.0659,0.0617,0.0644,0.0796,0.0897,0.0894,0.0891,0.0889,0,-0.0422,-0.0342,-0.0279,-0.025,-0.0164,-0.0089,-0.0016,0.0118,0.0217,0.037,0.0453,0.0568,0.0666,0.0774,0.0864,0.0849,0.101,0.1003,0.1047,0.1041,0.0874,0.0845,0.121,0.121,0.1209,0.1209,0.1208,0,-0.0386,-0.0327,-0.0262,-0.0227,-0.0126,-0.0064,0.0069,0.0161,0.0299,0.0447,0.054,0.0661,0.0746,0.0848,0.091,0.1021,0.1097,0.108,0.1099,0.0947,0.0924,0.0983,0.0954,0.1216,0.1214,0.1213,0.1211,0,-0.037,-0.0331,-0.026,-0.0165,-0.0117,-0.0036,0.0125,0.0227,0.0352,0.0537,0.0607,0.0789,0.095,0.0972,0.113,0.1112,0.1173,0.1229,0.1014,0.1003,0.1136,0.1116,0.1311,0.131,0.1309,0.1308,0.1307,0,-0.0354,-0.0322,-0.0219,-0.0154,-0.0095,0.0028,0.0134,0.0262,0.0379,0.0634,0.0736,0.0943,0.1126,0.1217,0.1176,0.1224,0.1282,0.1104,0.1045,0.1156,0.1155,0.1136,0.1119,0.0942,0.0939,0.0936,0.0933,0,-0.0317,-0.028,-0.0202,-0.0105,0.0009,0.0111,0.0272,0.0355,0.0547,0.0713,0.0973,0.1125,0.1252,0.1222,0.1201,0.1184,0.1037,0.1047,0.1273,0.0908,0.0815,0.081,0.0804,0.0906,0.0909,0.0911,0.0913,0.0914,-0.0251,-0.0205,-0.0114,-0.0001,0.0104,0.0211,0.032,0.0476,0.0665,0.0912,0.1052,0.1228,0.1083,0.1045,0.1008,0.0961,0.1044,0.0927,0.0934,0.0946,0.0837,0.0743,0.0801,0.0803,0.0805,0.0806,0.0808,0,-0.0193,-0.0122,-0.0016,0.0106,0.021,0.0266,0.0435,0.0527,0.0752,0.0937,0.1138,0.0956,0.0917,0.0891,0.0811,0.0736,0.0713,0.0682,0.0647,0.067,0.0691,0.0569,0.0464,0.0464,0.0464,0.0464,0,0,-0.015,-0.0049,0.0004,0.019,0.0295,0.0459,0.0567,0.0679,0.0787,0.0925,0.1006,0.0951,0.0887,0.0672,0.0555,0.0589,0.0654,0.0544,0.08,0.0787,0.0811,0.078,0.061,0,0,0,0,0]},{"header":{"parameterUnit":"m.s-1","parameterCategory":2,"la1":30.2991,"la2":30.254,"lo1":-89.0895,"lo2":-89.0444,"dy":0.0017,"dx":0.0017,"nx":28,"ny":28,"refTime":"2024-06-27T21:00:00:Z","depth":"2","parameterNumber":3,"parameterNumberName":"V-component_of_CURRENTS"},"data":[0,0,0,0,0,0,0,0,0,0,0,0,0,0,0,0,0,0,0,0,0,0,0,0,0,0,0,0,0,0,0,0,0,0,0,0,0,0,0,0,0,0,0,0,0,0,0,0,0,0,0,0,0,0,0,0,0,0,-0.0319,-0.0319,0,-0.027,-0.0269,-0.0268,-0.0291,-0.0293,-0.0294,-0.0296,-0.0389,-0.039,-0.0391,0,0,0,0,0,0,0,0,0,0,0,0,0,-0.0266,-0.0267,-0.0319,-0.0319,-0.0319,-0.027,-0.0269,-0.0267,-0.029,-0.0293,-0.0295,-0.0297,-0.0389,-0.039,-0.0391,0,0,0,0,0,0,0,0,0,0,0,0,0,-0.0254,-0.0268,-0.0319,-0.0329,-0.033,-0.027,-0.0269,-0.0267,-0.029,-0.0293,-0.0295,-0.0298,-0.0389,-0.039,-0.0391,-0.0342,0,0,-0.0394,-0.0395,0,0,0,0,0,0,0,0,-0.0255,-0.0255,-0.0328,-0.0328,-0.033,-0.0295,-0.0284,-0.0301,-0.0289,-0.0298,-0.0296,-0.0299,-0.0373,-0.0376,-0.0349,-0.0346,-0.035,-0.0394,-0.0395,-0.0396,-0.0396,0,0,0,0,0,0,0,-0.0256,-0.0256,-0.0292,-0.0328,-0.0329,-0.028,-0.0282,-0.0286,-0.0318,-0.0297,-0.0301,-0.0305,-0.0374,-0.0347,-0.0352,-0.0351,-0.0394,-0.0395,-0.0396,-0.0396,-0.0453,-0.0454,0,0,0,0,0,0,-0.0281,-0.0258,-0.0294,-0.0292,-0.0306,-0.028,-0.0282,-0.0298,-0.0315,-0.0321,-0.0303,-0.0307,-0.0344,-0.035,-0.0355,-0.0398,-0.0395,-0.0397,-0.0397,-0.0452,-0.0453,-0.0454,0,0,0,0,0,0,-0.028,-0.0285,-0.0296,-0.0278,-0.0277,-0.028,-0.0296,-0.0296,-0.0308,-0.0319,-0.0327,-0.0322,-0.0346,-0.0354,-0.039,-0.0399,-0.0397,-0.0398,-0.0451,-0.0453,-0.0454,-0.0421,0,0,0,0,0,0,-0.0279,-0.0285,-0.0299,-0.0281,-0.028,-0.0285,-0.0294,-0.0293,-0.0307,-0.0312,-0.0337,-0.0345,-0.0349,-0.0388,-0.0391,-0.0401,-0.0399,-0.045,-0.0452,-0.0453,-0.0421,-0.0421,-0.0421,0,0,0,0,0,-0.0277,-0.0277,-0.03,-0.0304,-0.0301,-0.0286,-0.028,-0.0285,-0.0306,-0.0306,-0.0331,-0.0347,-0.0401,-0.0389,-0.0392,-0.0402,-0.045,-0.0451,-0.0453,-0.0421,-0.0421,-0.0421,0,0,0,0,0,0,-0.0245,-0.028,-0.0304,-0.0313,-0.0318,-0.0293,-0.0293,-0.0299,-0.0309,-0.0333,-0.0345,-0.0354,-0.0388,-0.0404,-0.0391,-0.0428,-0.0433,-0.0435,-0.0407,-0.0407,-0.0407,-0.0385,-0.04,0,0,0,0,0,-0.0251,-0.0271,-0.029,-0.0296,-0.0311,-0.0309,-0.0305,-0.0316,-0.0323,-0.0331,-0.0349,-0.0376,-0.0386,-0.0408,-0.0419,-0.0434,-0.0448,-0.045,-0.045,-0.0449,-0.0436,-0.0481,-0.0483,-0.0461,-0.0461,-0.046,0,0,-0.0236,-0.0259,-0.0269,-0.0292,-0.03,-0.0295,-0.0313,-0.0324,-0.0316,-0.0341,-0.0351,-0.0374,-0.0391,-0.0404,-0.0423,-0.0428,-0.0461,-0.0452,-0.0451,-0.0437,-0.0483,-0.0485,-0.0487,-0.0462,-0.0462,-0.0461,0,0,-0.0198,-0.025,-0.0253,-0.0262,-0.0292,-0.0298,-0.0315,-0.0323,-0.0335,-0.0348,-0.0361,-0.0393,-0.0416,-0.0417,-0.0422,-0.0433,-0.0455,-0.0453,-0.0435,-0.048,-0.0481,-0.0483,-0.0486,-0.0489,-0.0458,-0.0458,-0.0458,0,-0.0181,-0.0191,-0.0243,-0.024,-0.0241,-0.0307,-0.0292,-0.0304,-0.0319,-0.0326,-0.0365,-0.0394,-0.0414,-0.0412,-0.0412,-0.043,-0.0449,-0.0428,-0.0477,-0.048,-0.0482,-0.0485,-0.0488,-0.0456,-0.0456,-0.0457,-0.0457,0,-0.014,-0.015,-0.0153,-0.0184,-0.0189,-0.0195,-0.0232,-0.0256,-0.0302,-0.0312,-0.0349,-0.0379,-0.0398,-0.0414,-0.0411,-0.0431,-0.0435,-0.0466,-0.0471,-0.0482,-0.0485,-0.0488,-0.0454,-0.0455,-0.0455,-0.0456,0,0,-0.0099,-0.0121,-0.0126,-0.0119,-0.0166,-0.0161,-0.0179,-0.0199,-0.0205,-0.0271,-0.0276,-0.0309,-0.0354,-0.0362,-0.0384,-0.0418,-0.0441,-0.0445,-0.0448,-0.0434,-0.0515,-0.0475,-0.0475,-0.049,-0.0491,-0.0492,-0.0504,0,-0.0056,-0.0032,-0.0055,-0.0029,-0.0022,-0.0078,-0.0073,-0.0106,-0.0156,-0.0186,-0.0263,-0.028,-0.0329,-0.0341,-0.039,-0.0426,-0.0453,-0.0433,-0.0518,-0.0519,-0.0472,-0.0479,-0.046,-0.0466,-0.0507,-0.0508,-0.0508,0,-0.0014,-0.0001,0.0031,0.0049,0.0045,0.0046,0.0023,0.0025,-0.0043,-0.0076,-0.0146,-0.0213,-0.0268,-0.0319,-0.0413,-0.0404,-0.0449,-0.0487,-0.049,-0.0463,-0.0486,-0.0468,-0.0471,-0.0515,-0.0514,-0.0514,-0.0513,0,0.0036,0.0059,0.0085,0.0089,0.0093,0.0094,0.0086,0.0045,0.0057,-0.0015,-0.0029,-0.014,-0.0178,-0.0288,-0.0389,-0.0405,-0.049,-0.0528,-0.0528,-0.0525,-0.0528,-0.0523,-0.0585,-0.0585,-0.0585,-0.0585,-0.0585,0,0.0087,0.011,0.0105,0.0122,0.0163,0.0146,0.0171,0.0153,0.0129,0.0155,0.0027,0.0023,-0.0175,-0.0262,-0.0369,-0.0454,-0.0485,-0.0511,-0.053,-0.0514,-0.0508,-0.0572,-0.057,-0.0585,-0.0585,-0.0585,-0.0585,0,0.0133,0.0125,0.0172,0.0184,0.0185,0.0213,0.0235,0.0266,0.0234,0.026,0.0242,0.014,0.0028,-0.0156,-0.0309,-0.0392,-0.0497,-0.0512,-0.0457,-0.0469,-0.0503,-0.05,-0.0519,-0.0517,-0.0516,-0.0515,-0.0515,0,0.0159,0.0183,0.0215,0.0247,0.0246,0.0279,0.0314,0.0312,0.0354,0.0352,0.038,0.0269,0.0228,0.0008,-0.0189,-0.0371,-0.0445,-0.0451,-0.0477,-0.0482,-0.0499,-0.0497,-0.0496,-0.0466,-0.0465,-0.0464,-0.0463,0,0.0223,0.022,0.025,0.0314,0.0354,0.0426,0.0467,0.0513,0.0534,0.0579,0.0628,0.0595,0.0371,0.0163,-0.0107,-0.0219,-0.0434,-0.0434,-0.0479,-0.0476,-0.0431,-0.0448,-0.0449,-0.0455,-0.0456,-0.0457,-0.0457,-0.0458,0.026,0.0293,0.0325,0.0388,0.0455,0.0559,0.0622,0.0702,0.0806,0.0863,0.082,0.0742,0.0388,0.0037,-0.0133,-0.0301,-0.0307,-0.0416,-0.0419,-0.0424,-0.0406,-0.0361,-0.0367,-0.0367,-0.0367,-0.0368,-0.0368,0,0.0315,0.034,0.0405,0.0488,0.0582,0.0597,0.0725,0.0811,0.0962,0.0962,0.1003,0.0629,0.0391,0.0048,-0.0157,-0.0292,-0.0306,-0.0367,-0.0394,-0.04,-0.0406,-0.0389,-0.0344,-0.0344,-0.0345,-0.0345,0,0,0.0345,0.0413,0.0445,0.0586,0.0638,0.0765,0.0842,0.0999,0.1031,0.1055,0.094,0.073,0.0317,0.0086,-0.0123,-0.0198,-0.0244,-0.0204,-0.0206,-0.0215,-0.0218,-0.0419,-0.0397,0,0,0,0,0]}],[{"header":{"parameterUnit":"m.s-1","parameterCategory":2,"la1":30.2991,"la2":30.254,"lo1":-89.0895,"lo2":-89.0444,"dy":0.0017,"dx":0.0017,"nx":28,"ny":28,"refTime":"2024-06-27T21:00:00:Z","depth":"4","parameterNumber":2,"parameterNumberName":"U-component_of_CURRENTS"},"data":[0,0,0,0,0,0,0,0,0,0,0,0,0,0,0,0,0,0,0,0,0,0,0,0,0,0,0,0,0,0,0,0,0,0,0,0,0,0,0,0,0,0,0,0,0,0,0,0,0,0,0,0,0,0,0,0,0,0,-0.0224,-0.0225,0,-0.0247,-0.0247,-0.0247,-0.0264,-0.0265,-0.0265,-0.0266,-0.04,-0.0403,-0.0406,0,0,0,0,0,0,0,0,0,0,0,0,0,-0.0203,-0.0203,-0.0224,-0.0225,-0.0226,-0.0247,-0.0247,-0.0247,-0.0264,-0.0265,-0.0265,-0.0266,-0.0399,-0.0402,-0.0406,0,0,0,0,0,0,0,0,0,0,0,0,0,-0.0214,-0.0203,-0.0224,-0.024,-0.0241,-0.0247,-0.0247,-0.0247,-0.0264,-0.0265,-0.0265,-0.0266,-0.0397,-0.0402,-0.0406,-0.042,0,0,-0.0421,-0.0423,0,0,0,0,0,0,0,0,-0.0213,-0.0214,-0.0237,-0.0239,-0.0241,-0.0257,-0.0289,-0.0312,-0.0264,-0.0251,-0.0266,-0.0267,-0.0364,-0.0372,-0.0367,-0.0426,-0.0432,-0.0421,-0.0424,-0.0426,-0.0427,0,0,0,0,0,0,0,-0.0212,-0.0213,-0.0229,-0.0237,-0.024,-0.0248,-0.025,-0.0293,-0.0302,-0.0252,-0.0255,-0.0263,-0.0366,-0.0362,-0.0371,-0.0434,-0.0421,-0.0425,-0.0428,-0.043,-0.0609,-0.0611,0,0,0,0,0,0,-0.0216,-0.0212,-0.0229,-0.023,-0.0233,-0.0248,-0.025,-0.0248,-0.0299,-0.0308,-0.0263,-0.0264,-0.0354,-0.0365,-0.0376,-0.0505,-0.0426,-0.043,-0.0433,-0.0607,-0.0609,-0.0611,0,0,0,0,0,0,-0.0215,-0.0217,-0.0228,-0.0226,-0.0228,-0.0248,-0.0245,-0.0248,-0.0266,-0.0307,-0.0317,-0.0281,-0.0355,-0.0369,-0.0441,-0.0506,-0.0432,-0.0436,-0.0605,-0.0608,-0.061,-0.0693,0,0,0,0,0,0,-0.0214,-0.0216,-0.0211,-0.0226,-0.0229,-0.0242,-0.0245,-0.0248,-0.0271,-0.0274,-0.0326,-0.0337,-0.0357,-0.0434,-0.0445,-0.0511,-0.044,-0.0602,-0.0606,-0.0609,-0.0687,-0.0698,-0.0707,0,0,0,0,0,-0.0213,-0.0208,-0.021,-0.0213,-0.0222,-0.0243,-0.0245,-0.0259,-0.0272,-0.0278,-0.0326,-0.0337,-0.0466,-0.0439,-0.0452,-0.0521,-0.06,-0.0605,-0.0609,-0.0683,-0.0696,-0.0707,0,0,0,0,0,0,-0.0197,-0.021,-0.0213,-0.0211,-0.0231,-0.0248,-0.0257,-0.0271,-0.0308,-0.032,-0.0359,-0.0374,-0.046,-0.0473,-0.0442,-0.0581,-0.0537,-0.0544,-0.0588,-0.0601,-0.061,-0.0592,-0.0444,0,0,0,0,0,-0.019,-0.0194,-0.0209,-0.0213,-0.0222,-0.0243,-0.0253,-0.0266,-0.0302,-0.0318,-0.0371,-0.0425,-0.0483,-0.0527,-0.0567,-0.0645,-0.0603,-0.0698,-0.0708,-0.0716,-0.0709,-0.0713,-0.0722,-0.0626,-0.0626,-0.0626,0,0,-0.0185,-0.0197,-0.0197,-0.0211,-0.0227,-0.0234,-0.0251,-0.0274,-0.0291,-0.0331,-0.0393,-0.0458,-0.0507,-0.0594,-0.0635,-0.062,-0.0714,-0.0722,-0.0729,-0.0717,-0.0719,-0.0728,-0.0736,-0.0629,-0.0629,-0.0628,0,0,-0.0183,-0.0189,-0.019,-0.0207,-0.0234,-0.0241,-0.0254,-0.0292,-0.032,-0.0392,-0.0428,-0.0524,-0.0618,-0.0667,-0.0703,-0.0788,-0.0757,-0.0823,-0.0877,-0.0882,-0.0889,-0.0895,-0.0816,-0.0814,-0.0841,-0.0841,-0.0841,0,-0.0176,-0.0178,-0.0196,-0.0207,-0.0225,-0.0247,-0.0258,-0.0278,-0.0344,-0.0386,-0.0424,-0.059,-0.0647,-0.0741,-0.0797,-0.0812,-0.0783,-0.0831,-0.0893,-0.0899,-0.0904,-0.0821,-0.0818,-0.0845,-0.0845,-0.0844,-0.0844,0,-0.0175,-0.0179,-0.0188,-0.0202,-0.0223,-0.024,-0.0272,-0.0308,-0.0369,-0.0415,-0.0544,-0.0639,-0.0746,-0.0797,-0.0842,-0.0928,-0.0881,-0.0894,-0.0859,-0.0918,-0.0827,-0.0822,-0.0852,-0.085,-0.0849,-0.0848,0,0,-0.0153,-0.0177,-0.0181,-0.019,-0.0226,-0.0241,-0.0277,-0.0323,-0.0361,-0.0473,-0.0548,-0.0714,-0.08,-0.0845,-0.0921,-0.096,-0.0986,-0.0971,-0.0969,-0.0881,-0.0944,-0.0816,-0.0797,-0.1027,-0.1028,-0.1029,-0.0851,0,-0.0146,-0.015,-0.0179,-0.0194,-0.0198,-0.0243,-0.0276,-0.0329,-0.0405,-0.0479,-0.06,-0.0714,-0.0802,-0.0901,-0.0953,-0.0985,-0.0986,-0.1028,-0.0907,-0.0901,-0.0775,-0.0793,-0.1031,-0.0847,-0.0846,-0.0845,-0.0845,0,-0.0138,-0.014,-0.0151,-0.019,-0.0202,-0.0233,-0.03,-0.0344,-0.0435,-0.0517,-0.0649,-0.0725,-0.0844,-0.09,-0.0952,-0.0985,-0.0975,-0.0973,-0.0966,-0.0815,-0.0767,-0.0786,-0.0836,-0.0836,-0.0837,-0.0838,-0.0838,0,-0.0107,-0.0128,-0.0138,-0.0151,-0.0192,-0.0241,-0.0292,-0.0378,-0.0431,-0.0564,-0.0614,-0.0743,-0.0813,-0.0856,-0.0862,-0.0938,-0.0826,-0.0915,-0.0754,-0.074,-0.0871,-0.0867,-0.09,-0.0901,-0.0901,-0.0902,-0.0902,0,-0.0093,-0.01,-0.0133,-0.0141,-0.0173,-0.0245,-0.0322,-0.0386,-0.0492,-0.0529,-0.0663,-0.0668,-0.0817,-0.0766,-0.0801,-0.0716,-0.0766,-0.0739,-0.0699,-0.0903,-0.0905,-0.0863,-0.0862,-0.0895,-0.0896,-0.0898,-0.0899,0,-0.007,-0.0083,-0.0087,-0.0135,-0.0162,-0.0208,-0.0333,-0.0371,-0.0492,-0.0535,-0.0582,-0.0621,-0.0583,-0.0598,-0.0596,-0.0601,-0.0551,-0.0484,-0.0594,-0.0566,-0.0483,-0.0488,-0.0363,-0.0357,-0.0352,-0.0348,-0.0345,0,-0.0061,-0.0058,-0.0076,-0.0081,-0.012,-0.0203,-0.0239,-0.0376,-0.0414,-0.0457,-0.0436,-0.0414,-0.0425,-0.0267,-0.0326,-0.0297,-0.0315,-0.0266,-0.0514,-0.046,-0.0434,-0.0447,-0.0458,-0.0337,-0.0336,-0.0334,-0.0333,0,-0.0041,-0.0046,-0.0044,-0.0042,-0.0078,-0.0105,-0.0184,-0.0205,-0.0315,-0.0389,-0.0309,-0.0286,-0.0179,-0.0181,-0.0108,-0.0108,-0.0322,-0.0218,-0.0234,-0.0467,-0.0428,-0.041,-0.0426,-0.0316,-0.0319,-0.032,-0.0321,0,-0.0033,-0.0015,-0.0005,-0.0013,-0.0014,-0.0008,-0.0065,-0.0089,-0.0143,-0.0219,-0.0137,-0.0106,-0.0117,-0.0064,0.0014,0.0016,-0.0083,-0.015,-0.0172,-0.0191,-0.023,-0.0161,0.0087,0,0,0,0,0,-0.0025,0.0001,0.0019,0.0032,0.0047,0.0037,-0.0002,-0.006,-0.0132,-0.0065,-0.014,-0.0044,0.0006,0.0052,0.0069,0.0057,-0.0079,0.0077,-0.0168,-0.0223,-0.0243,-0.0312,0,0,0,0,0,0,-0.0017,0.0008,0.0031,0.0078,0.0098,0.0109,0.0094,0.0049,0.0057,-0.0007,0.0035,-0.0029,0.0036,0.0002,0.008,0.008,-0.0072,0.0075,0.0075,-0.0213,-0.023,-0.0246,-0.0323,0,0,0,0,0]},{"header":{"parameterUnit":"m.s-1","parameterCategory":2,"la1":30.2991,"la2":30.254,"lo1":-89.0895,"lo2":-89.0444,"dy":0.0017,"dx":0.0017,"nx":28,"ny":28,"refTime":"2024-06-27T21:00:00:Z","depth":"4","parameterNumber":3,"parameterNumberName":"V-component_of_CURRENTS"},"data":[0,0,0,0,0,0,0,0,0,0,0,0,0,0,0,0,0,0,0,0,0,0,0,0,0,0,0,0,0,0,0,0,0,0,0,0,0,0,0,0,0,0,0,0,0,0,0,0,0,0,0,0,0,0,0,0,0,0,-0.0241,-0.0242,0,-0.03,-0.0301,-0.0302,-0.0321,-0.0321,-0.032,-0.032,-0.0336,-0.0337,-0.0338,0,0,0,0,0,0,0,0,0,0,0,0,0,-0.015,-0.0152,-0.0241,-0.0242,-0.0243,-0.03,-0.0301,-0.0302,-0.0321,-0.0321,-0.032,-0.032,-0.0336,-0.0337,-0.0338,0,0,0,0,0,0,0,0,0,0,0,0,0,-0.0198,-0.0152,-0.0241,-0.0259,-0.0261,-0.03,-0.0301,-0.0302,-0.0321,-0.0321,-0.032,-0.032,-0.0336,-0.0337,-0.0338,-0.0353,0,0,-0.0341,-0.0342,0,0,0,0,0,0,0,0,-0.0195,-0.0201,-0.0255,-0.0258,-0.026,-0.0302,-0.0275,-0.0317,-0.0321,-0.0299,-0.032,-0.032,-0.0321,-0.0323,-0.0337,-0.0354,-0.0355,-0.0341,-0.0342,-0.0342,-0.0343,0,0,0,0,0,0,0,-0.0192,-0.0199,-0.0265,-0.0256,-0.0259,-0.0266,-0.0272,-0.0283,-0.0311,-0.03,-0.0302,-0.0308,-0.0322,-0.0336,-0.0337,-0.0355,-0.0341,-0.0342,-0.0343,-0.0343,-0.0391,-0.0392,0,0,0,0,0,0,-0.0184,-0.0196,-0.0263,-0.0267,-0.0225,-0.0267,-0.0275,-0.029,-0.0312,-0.0315,-0.0308,-0.0309,-0.0334,-0.0336,-0.0338,-0.0355,-0.0342,-0.0343,-0.0344,-0.0391,-0.0391,-0.0392,0,0,0,0,0,0,-0.0182,-0.019,-0.0261,-0.0231,-0.0241,-0.0269,-0.0286,-0.0291,-0.0315,-0.0318,-0.0321,-0.0329,-0.0334,-0.0336,-0.037,-0.0355,-0.0344,-0.0345,-0.039,-0.0391,-0.0392,-0.039,0,0,0,0,0,0,-0.0179,-0.0189,-0.0202,-0.0231,-0.0242,-0.0294,-0.0287,-0.0292,-0.0319,-0.032,-0.0337,-0.0337,-0.0334,-0.0369,-0.0371,-0.0357,-0.0346,-0.0389,-0.039,-0.0392,-0.039,-0.0391,-0.0392,0,0,0,0,0,-0.0176,-0.0197,-0.0203,-0.0211,-0.0258,-0.0295,-0.0302,-0.032,-0.032,-0.0339,-0.0356,-0.0337,-0.0377,-0.0372,-0.0374,-0.0359,-0.0389,-0.039,-0.0391,-0.0389,-0.0391,-0.0392,0,0,0,0,0,0,-0.017,-0.0202,-0.0209,-0.024,-0.0269,-0.0298,-0.0317,-0.033,-0.0359,-0.0363,-0.0361,-0.0364,-0.0391,-0.0383,-0.0376,-0.0378,-0.0373,-0.0375,-0.037,-0.0372,-0.0373,-0.0358,-0.0346,0,0,0,0,0,-0.0173,-0.0197,-0.0226,-0.0255,-0.0267,-0.0294,-0.0313,-0.033,-0.0356,-0.0369,-0.0382,-0.0389,-0.0398,-0.0393,-0.0413,-0.0415,-0.0406,-0.0403,-0.0404,-0.0406,-0.0396,-0.0367,-0.0364,-0.0397,-0.0397,-0.0397,0,0,-0.0179,-0.02,-0.0214,-0.0255,-0.0276,-0.0304,-0.0305,-0.0342,-0.0371,-0.0366,-0.041,-0.0413,-0.0409,-0.0419,-0.0425,-0.0406,-0.0401,-0.0407,-0.0408,-0.0398,-0.0368,-0.0365,-0.0362,-0.0398,-0.0398,-0.0398,0,0,-0.0201,-0.0221,-0.0245,-0.0271,-0.0309,-0.0324,-0.0336,-0.0376,-0.0398,-0.044,-0.0438,-0.0444,-0.0459,-0.0448,-0.0442,-0.0465,-0.0428,-0.0451,-0.0421,-0.0393,-0.0389,-0.0386,-0.0404,-0.0402,-0.0427,-0.0427,-0.0427,0,-0.0205,-0.0241,-0.0259,-0.0289,-0.0316,-0.0332,-0.0368,-0.0392,-0.0441,-0.0464,-0.0458,-0.0477,-0.0475,-0.0465,-0.0452,-0.0467,-0.0446,-0.0411,-0.0392,-0.0388,-0.0385,-0.0403,-0.0401,-0.0428,-0.0428,-0.0428,-0.0427,0,-0.0241,-0.0274,-0.0292,-0.0331,-0.0363,-0.0398,-0.043,-0.046,-0.048,-0.0503,-0.0527,-0.0516,-0.0505,-0.05,-0.0472,-0.0434,-0.043,-0.0415,-0.0382,-0.0381,-0.0402,-0.0399,-0.0428,-0.0428,-0.0428,-0.0428,0,0,-0.0244,-0.0303,-0.031,-0.0339,-0.0391,-0.042,-0.0465,-0.0512,-0.0538,-0.0556,-0.0576,-0.056,-0.0525,-0.0512,-0.047,-0.0426,-0.0389,-0.0379,-0.0377,-0.0386,-0.0338,-0.0341,-0.0339,-0.0342,-0.034,-0.034,-0.0374,0,-0.0267,-0.0316,-0.0353,-0.0412,-0.044,-0.0479,-0.0519,-0.0564,-0.0591,-0.0611,-0.0587,-0.0582,-0.0535,-0.0492,-0.0445,-0.0403,-0.0375,-0.0383,-0.0345,-0.0346,-0.0338,-0.0333,-0.0336,-0.0372,-0.0372,-0.0371,-0.0371,0,-0.0294,-0.0322,-0.0381,-0.045,-0.0469,-0.0515,-0.0578,-0.0613,-0.0645,-0.0652,-0.0625,-0.0595,-0.0526,-0.0481,-0.0405,-0.0394,-0.0356,-0.0334,-0.0334,-0.0329,-0.0342,-0.0366,-0.0366,-0.0367,-0.0367,-0.0367,-0.0368,0,-0.0279,-0.0349,-0.0395,-0.0421,-0.0494,-0.0545,-0.0583,-0.0637,-0.0661,-0.0653,-0.0638,-0.0587,-0.0528,-0.0467,-0.0397,-0.0373,-0.0337,-0.0317,-0.0311,-0.0313,-0.03,-0.0303,-0.0277,-0.0277,-0.0277,-0.0277,-0.0276,0,-0.0291,-0.0332,-0.0397,-0.0424,-0.0491,-0.0546,-0.0614,-0.064,-0.0662,-0.0668,-0.0628,-0.0579,-0.0501,-0.0464,-0.0413,-0.0359,-0.0353,-0.0307,-0.0308,-0.0307,-0.031,-0.0301,-0.0303,-0.0278,-0.0278,-0.0277,-0.0277,0,-0.0284,-0.032,-0.0378,-0.0457,-0.0492,-0.054,-0.0625,-0.0651,-0.0661,-0.0653,-0.0624,-0.0561,-0.0487,-0.0469,-0.0396,-0.0376,-0.034,-0.0333,-0.0374,-0.0379,-0.0337,-0.034,-0.0317,-0.0317,-0.0317,-0.0317,-0.0317,0,-0.0287,-0.0312,-0.0393,-0.0428,-0.0481,-0.0554,-0.0598,-0.0642,-0.0652,-0.0626,-0.0598,-0.0534,-0.0487,-0.0413,-0.0388,-0.0365,-0.0345,-0.036,-0.0298,-0.0331,-0.0335,-0.0337,-0.0339,-0.0318,-0.0318,-0.0318,-0.0318,0,-0.0288,-0.0318,-0.0356,-0.0413,-0.0476,-0.0537,-0.0596,-0.058,-0.0599,-0.062,-0.0529,-0.048,-0.0429,-0.0372,-0.038,-0.0349,-0.0362,-0.036,-0.0358,-0.03,-0.0331,-0.0336,-0.0337,-0.0318,-0.0318,-0.0318,-0.0318,0,-0.0289,-0.0306,-0.0341,-0.0395,-0.046,-0.0487,-0.0525,-0.0523,-0.0528,-0.0498,-0.0469,-0.0415,-0.0405,-0.0365,-0.0359,-0.035,-0.0319,-0.0306,-0.0306,-0.0306,-0.0285,-0.0321,-0.03,0,0,0,0,0,-0.0285,-0.0286,-0.0321,-0.0364,-0.0418,-0.0467,-0.0506,-0.0527,-0.0535,-0.0462,-0.0464,-0.0409,-0.0359,-0.0334,-0.0314,-0.0357,-0.0333,-0.0337,-0.032,-0.0319,-0.0319,-0.0294,0,0,0,0,0,0,-0.028,-0.0298,-0.0298,-0.032,-0.0353,-0.0411,-0.0436,-0.0445,-0.0404,-0.0407,-0.0368,-0.0409,-0.0356,-0.0363,-0.0311,-0.0314,-0.0301,-0.0339,-0.0338,-0.0319,-0.0319,-0.0319,-0.0293,0,0,0,0,0]}]]